GFSGL_700_temp_276.txt.gz
Temp
13 13 12 12 12 11 10 10 10 9 9 9 9 9 8 8 8 8 8 8 8 8 8 7 7 7 7 7 6 6 6 6 5 5 5 5 5 5 6 6 6 7 7
13 12 12 11 11 10 10 10 9 9 9 8 8 8 8 8 7 7 7 7 7 7 7 7 7 7 7 6 7 6 6 6 6 5 5 5 5 5 5 5 5 5 6
12 12 11 11 10 10 9 9 9 8 8 8 7 7 7 7 6 6 6 6 6 6 6 7 7 7 7 7 6 6 6 6 6 5 5 5 5 6 5 6 6 5 5
11 11 10 10 9 9 9 9 9 8 8 7 7 7 6 6 5 5 6 6 6 6 6 6 6 6 6 6 6 6 6 6 5 5 5 5 5 5 5 5 5 5 6
11 10 10 10 9 9 9 8 8 8 7 7 7 6 6 6 6 6 6 6 6 7 6 6 6 6 6 6 6 6 6 6 6 5 5 5 5 4 5 6 5 5 6
11 10 10 9 9 8 8 8 7 7 7 6 6 7 7 7 7 7 6 6 7 7 6 6 6 6 6 6 5 6 6 6 6 6 5 5 5 5 6 5 5 5 6
10 10 10 9 8 8 8 7 7 7 7 7 7 7 7 7 7 7 6 6 6 6 6 5 5 6 5 5 5 5 5 5 5 5 5 6 6 5 5 6 7 7 7
10 10 9 9 8 8 7 7 7 7 7 7 7 7 7 7 6 6 6 6 6 5 5 5 5 5 5 4 4 4 4 4 4 5 5 5 5 6 6 5 5 6 6
10 10 9 8 8 8 8 7 7 7 7 8 7 7 7 7 7 6 5 5 5 4 4 4 4 4 4 4 4 4 4 3 3 4 4 3 4 5 5 5 6 6 6
10 10 9 8 8 8 7 7 7 7 7 7 7 7 6 7 6 6 5 4 3 3 3 3 4 3 3 3 3 3 3 3 3 3 3 3 4 4 4 4 5 5 5
10 9 8 8 8 7 7 7 7 7 7 7 6 6 6 6 5 4 4 3 2 2 2 1 1 2 1 1 1 1 1 2 2 2 2 3 3 2 3 3 4 4 5
9 9 8 8 8 7 7 7 7 7 7 6 5 5 5 4 4 3 3 2 2 1 1 1 1 1 1 1 0 0 0 0 0 1 1 1 1 1 2 2 2 3 3
9 8 8 8 7 7 7 7 6 7 6 5 4 3 4 4 3 2 2 1 1 1 1 0 0 -0 -0 -0 -0 -1 -1 -1 -1 -1 -1 -0 -0 -0 0 0 1 1 2
8 8 8 7 7 7 7 6 6 6 5 4 4 3 3 3 2 1 0 1 0 0 0 -1 -1 -1 -1 -1 -1 -2 -3 -3 -3 -3 -3 -2 -2 -1 -1 -1 -0 -0 0
7 8 7 7 7 7 6 6 5 5 4 3 4 4 3 2 1 0 -0 -0 -1 -2 -2 -2 -2 -2 -2 -2 -3 -3 -3 -3 -4 -4 -4 -4 -4 -4 -3 -3 -2 -2 -2
7 7 7 7 7 6 6 6 5 5 4 4 3 3 2 1 0 -0 -1 -1 -2 -2 -2 -3 -2 -3 -3 -3 -3 -3 -3 -3 -4 -4 -4 -4 -4 -4 -4 -4 -3 -3 -3
7 7 7 7 6 6 5 4 4 5 4 3 3 2 1 0 -0 -1 -1 -1 -2 -2 -2 -2 -2 -2 -2 -3 -3 -3 -3 -3 -4 -4 -4 -3 -3 -4 -4 -4 -4 -3 -3
7 6 7 7 6 5 4 4 4 3 3 3 3 1 0 -1 -1 -1 -1 -1 -1 -4 -5 -5 -5 -5 -5 -4 -5 -5 -4 -5 -5 -5 -5 -5 -4 -4 -4 -4 -3 -3 -3
6 6 6 6 5 5 4 4 3 3 3 2 1 -0 -1 -0 -1 -1 -1 -1 -2 -4 -5 -5 -5 -5 -5 -5 -5 -4 -4 -4 -4 -4 -5 -5 -5 -5 -5 -5 -5 -3 -3
6 6 5 5 5 5 4 3 3 3 2 1 -0 -1 -1 -1 -1 -1 -1 -2 -4 -4 -3 -4 -5 -5 -4 -4 -3 -2 -2 -1 -2 -2 -3 -4 -5 -5 -5 -5 -5 -4 -3
6 5 4 4 5 4 3 3 3 2 1 -0 -1 -1 -1 -0 -0 -1 -2 -2 -2 -2 -2 -3 -3 -3 -2 -2 -1 -1 -2 -2 -2 -2 -3 -4 -5 -5 -5 -5 -5 -4 -4
5 4 4 4 4 3 3 2 2 1 -0 -0 -1 -1 -0 -1 -2 -2 -2 -2 -2 -2 -2 -3 -3 -2 -1 -1 -1 -1 -1 -1 -1 -2 -3 -4 -5 -5 -5 -5 -5 -5 -4
4 4 4 4 3 3 3 2 1 -0 -1 -1 -1 -1 -1 -3 -3 -3 -2 -2 -2 -2 -2 -3 -2 -1 -1 -1 -1 -1 -1 -0 0 -1 -1 -1 -4 -5 -5 -5 -4 -4 -4
3 4 4 4 3 2 2 1 0 -0 -0 -1 -1 -1 -2 -3 -3 -2 -2 -2 -1 -2 -2 -2 -1 -1 -1 -1 -1 -1 -0 1 0 0 1 0 -2 -4 -4 -4 -4 -4 -4
3 4 3 3 2 2 1 0 -0 -0 -1 -0 -0 -1 -1 -1 -2 -2 -2 -2 -1 -2 -2 -1 -1 -1 -1 -1 -1 -1 1 1 0 -1 -1 -1 -2 -3 -4 -4 -4 -4 -4
3 3 3 2 2 1 0 0 -0 -0 -0 -0 -1 -1 -1 -1 -1 -1 -1 -1 -1 -2 -1 -1 -1 -0 -1 -0 -1 -1 1 0 -0 -0 -1 -2 -2 -3 -3 -3 -3 -3 -3

GFSGL_700_temp_279.txt.gz
Temp
13 13 12 12 12 11 11 11 10 10 10 10 9 9 9 9 9 9 9 8 8 8 8 8 8 7 7 7 7 7 7 6 6 6 6 6 6 5 6 5 5 6 5
13 13 12 12 11 11 11 10 9 9 9 9 9 9 9 8 8 8 8 8 7 7 7 7 7 8 7 7 6 6 6 6 6 6 5 6 6 6 5 5 5 5 5
13 13 12 12 11 11 10 10 10 9 9 9 9 8 8 8 7 7 7 7 7 7 7 7 7 7 7 7 7 7 6 6 5 6 6 6 5 5 5 5 6 6 6
13 12 12 11 11 10 10 10 9 9 9 9 8 8 8 8 8 7 7 7 7 7 7 7 7 7 6 6 7 7 7 6 6 5 6 5 5 5 5 5 5 5 5
13 12 12 11 11 10 10 10 9 9 9 8 8 8 8 8 8 7 7 7 8 8 8 7 7 7 7 6 6 6 6 6 6 6 5 5 5 5 5 5 5 6 5
12 12 11 11 10 10 9 9 8 8 8 8 9 9 8 8 8 8 8 7 7 7 7 7 7 7 7 6 6 6 6 6 5 5 5 5 5 5 5 5 6 6 6
12 11 11 10 10 9 9 8 8 8 8 8 8 8 8 8 8 7 7 7 7 7 7 6 5 7 7 6 6 6 5 5 5 5 5 4 4 4 5 5 5 6 6
11 11 10 10 10 9 8 8 8 8 8 8 8 8 8 7 8 8 7 6 6 6 6 6 6 5 6 5 5 5 4 4 4 4 4 4 4 4 4 5 5 5 5
11 11 10 10 9 8 8 8 7 7 7 8 7 7 7 7 7 7 7 6 5 5 6 5 5 4 4 3 4 3 3 3 3 3 3 3 3 2 3 4 4 5 5
11 10 10 9 9 8 8 7 7 7 7 7 7 7 7 7 6 6 6 6 4 3 3 3 4 5 4 3 3 3 2 2 2 2 2 2 2 3 3 3 3 4 4
11 10 10 9 8 8 8 7 7 7 7 7 7 6 6 6 5 5 5 4 4 3 3 2 1 2 3 2 2 1 1 1 1 1 1 1 0 1 1 0 1 2 3
10 10 9 9 8 8 8 7 7 7 7 7 6 5 6 5 5 4 4 4 3 2 2 1 1 1 0 0 -0 -0 -0 0 0 -0 -0 -0 -0 -0 -0 0 0 0 0
9 9 9 8 8 8 7 7 7 7 6 6 5 3 0 -0 3 4 3 2 2 1 1 0 -0 -1 -1 -0 -0 -1 -1 -1 -1 -2 -2 -2 -2 -2 -3 -2 -1 -1 -0
9 8 8 8 8 8 7 7 7 6 5 5 3 2 0 1 1 2 1 1 0 -0 0 -1 -1 -1 -1 -1 -1 -1 -2 -2 -2 -2 -2 -2 -2 -3 -3 -3 -2 -2 -2
7 7 7 8 8 7 7 7 6 5 5 4 3 3 3 1 2 1 1 0 -0 -0 -0 -1 -1 -1 -1 -1 -1 -1 -1 -4 -3 -3 -3 -3 -3 -2 -3 -3 -3 -3 -3
7 7 7 7 7 7 7 6 6 5 4 4 3 3 2 2 1 1 0 0 -0 -0 -0 -1 -1 -3 -3 -3 -4 -5 -3 -2 -3 -3 -3 -4 -4 -4 -4 -3 -4 -3 -4
7 6 6 6 7 7 6 6 6 5 4 4 3 2 2 1 1 0 0 0 -0 -1 -2 -4 -4 -4 -3 -3 -4 -4 -4 -4 -4 -4 -4 -4 -4 -4 -4 -4 -5 -4 -3
6 5 6 6 6 6 6 5 4 -1 -0 2 3 2 1 1 0 0 0 0 -0 -3 -3 -3 -3 -3 -3 -3 -4 -4 -3 -3 -3 -3 -2 -2 -4 -4 -4 -4 -5 -4 -5
6 5 6 6 5 5 5 4 2 -0 1 1 1 -1 -1 0 0 -0 -1 -3 -3 -3 -3 -3 -3 -4 -4 -4 -2 -2 -1 -1 -1 -2 -2 -2 -2 -3 -3 -4 -5 -4 -4
6 6 5 6 6 5 4 3 -1 0 1 -0 -1 -2 -1 -0 -0 -3 -3 -3 -3 -3 -3 -4 -4 -4 -3 -2 -1 -1 -1 -1 -1 -1 -1 -2 -2 -3 -3 -4 -5 -4 -4
5 6 6 6 5 5 2 0 2 2 1 -1 -2 -2 -1 -2 -2 -2 -2 -2 -3 -3 -3 -3 -2 -2 -2 -1 -1 -1 -1 -1 -1 -1 -0 -1 -2 -3 -4 -5 -5 -5 -5
5 5 5 4 5 4 3 3 2 1 -0 -2 -2 -2 -2 -2 -2 -2 -2 -2 -3 -2 -2 -2 -2 -1 -1 -1 -1 -0 -1 -1 -0 0 -0 -1 -0 -1 -3 -6 -6 -5 -5
5 5 4 4 4 4 3 2 1 -0 -1 -2 -1 -1 -1 -1 -2 -2 -2 -3 -1 -1 -2 -2 -1 -1 -1 -1 -1 -1 -1 -1 -0 -0 -1 0 1 -0 -3 -6 -6 -6 -5
5 4 4 4 4 3 1 2 -0 -0 -0 -1 -1 -1 -1 -1 -2 -2 -2 -1 -0 -1 -1 -1 -1 -1 -0 -0 -0 -1 -1 -1 -1 -0 -1 -1 -0 -2 -3 -5 -5 -5 -5
4 4 4 4 3 2 2 -0 -1 -1 -1 -1 -1 -1 -1 -1 -2 -2 -1 -1 -1 -1 -1 -1 -2 -2 -1 -0 -1 -2 -1 -1 -1 -1 -1 -1 -1 -2 -3 -4 -4 -4 -4
3 4 3 3 2 2 0 -1 -1 -1 -1 -1 -1 -1 -1 -2 -2 -1 -1 -1 -0 -0 -1 -2 -1 -1 -1 -0 -1 -2 -2 -1 -2 -2 -2 -2 -2 -2 -2 -3 -3 -3 -3

GFSGL_700_temp_285.txt.gz
Temp
13 13 13 12 12 12 12 11 11 11 10 10 9 9 9 9 8 8 8 8 8 8 9 8 7 7 7 7 7 8 7 7 7 6 6 6 6 6 6 6 6 6 6
13 13 13 13 13 12 11 11 10 10 10 9 9 9 9 8 8 8 8 8 8 8 8 8 8 8 8 7 7 7 7 7 7 7 6 6 5 6 5 5 5 5 5
14 14 14 13 13 12 11 11 10 10 9 9 9 9 8 9 8 8 8 8 8 8 7 8 8 8 8 8 7 7 7 7 7 7 7 5 4 4 5 5 5 5 5
14 14 14 13 12 11 11 11 10 10 9 9 9 8 8 8 8 8 8 8 8 8 7 7 8 7 7 7 7 7 7 7 6 6 6 6 6 5 5 5 4 4 5
14 14 14 13 12 11 11 10 10 9 9 8 8 8 8 8 8 8 8 7 7 8 8 7 7 7 6 6 6 6 6 6 6 6 6 5 6 6 5 5 4 4 4
14 14 13 12 12 11 11 10 10 9 9 8 8 8 8 8 8 8 8 8 8 7 7 8 8 7 6 5 4 5 5 4 4 5 4 5 5 5 5 5 5 5 5
13 14 13 12 12 11 10 10 9 9 8 8 8 8 8 8 8 7 7 7 8 7 6 5 6 6 6 5 4 3 3 4 3 3 4 4 4 3 4 4 5 5 5
13 13 12 12 11 10 10 9 9 8 8 8 7 8 8 8 7 7 7 7 6 6 6 6 5 5 4 4 4 3 2 2 1 2 2 2 3 3 3 3 4 4 4
13 13 12 11 11 10 10 9 9 8 8 8 7 8 8 7 7 7 6 5 5 5 5 4 4 4 4 3 2 2 1 2 1 1 1 1 1 1 2 2 3 3 4
12 12 12 11 11 10 9 9 9 8 8 8 7 7 7 7 7 7 6 5 5 4 3 2 2 1 1 0 0 0 0 1 0 0 0 0 0 0 0 0 1 1 2
12 12 11 11 10 10 9 8 8 7 7 7 8 7 7 7 6 6 5 4 4 3 2 2 1 1 0 -0 -0 -0 -0 0 -0 -1 -1 -1 -1 -1 -1 -1 -1 -1 0
12 11 11 10 10 9 8 8 8 7 7 7 7 6 6 6 6 5 5 4 2 2 2 1 1 1 0 -0 -1 -1 -1 -0 -1 -1 -2 -2 -2 -1 -1 -1 -1 -1 -1
11 11 10 10 9 9 8 7 7 7 7 7 7 6 6 5 5 4 3 2 2 1 1 1 1 0 -1 -2 -3 -3 -2 -2 -2 -2 -3 -2 -3 -3 -2 -2 -2 -3 -2
10 10 9 9 8 8 7 7 6 6 6 6 6 5 5 4 3 2 2 1 1 1 1 1 -0 -2 -2 -2 -3 -3 -3 -3 -4 -3 -3 -3 -3 -3 -3 -3 -3 -3 -3
7 7 7 8 8 7 6 6 6 6 6 6 5 4 4 3 2 2 1 1 1 0 -0 -1 -1 -1 -1 -2 -3 -4 -3 -3 -3 -3 -3 -3 -3 -3 -3 -2 -2 -2 -3
6 7 8 8 7 6 5 5 5 6 6 4 4 4 3 3 2 2 1 0 -0 0 -0 -0 -1 -1 -2 -3 -3 -3 -4 -3 -3 -4 -3 -2 -2 -2 -2 -2 -2 -2 -3
8 9 8 6 6 5 5 5 5 6 5 4 3 3 3 2 1 1 1 -0 -1 -0 -1 -1 -1 -2 -3 -3 -3 -3 -4 -3 -2 -1 -1 -1 -1 -1 -1 -1 -2 -2 -3
8 8 6 5 6 5 5 5 5 5 5 4 3 3 2 1 0 -0 -1 -1 -2 -2 -2 -1 -1 -2 -2 -2 -3 -2 -2 -1 -1 -1 -1 -1 -1 -1 -1 -1 -1 -2 -2
8 6 5 6 5 5 5 5 5 5 4 4 3 3 2 0 -1 -1 -1 -1 -2 -2 -2 -2 -2 -3 -2 -2 -3 -2 -2 -1 -1 -1 -1 -1 -1 -1 -1 -1 -1 -2 -3
6 6 6 5 5 5 5 4 4 4 3 2 2 1 0 -1 -1 -1 -1 -2 -2 -2 -2 -2 -2 -1 -2 -3 -2 -2 -1 -1 -1 -1 -2 -1 -1 -1 -0 0 0 -1 -3
6 6 5 4 5 5 4 4 3 4 2 2 1 -0 -1 -1 -1 -1 -1 -1 -2 -2 -2 -2 -1 -1 -1 -2 -1 -1 -1 -1 -1 -2 -1 -1 -1 -1 -0 0 0 -2 -2
5 5 4 4 4 4 4 4 3 3 3 2 -0 -1 -1 -1 -1 -1 -1 -2 -1 -2 -1 -1 -0 -1 -1 -1 -1 -1 -1 -2 -2 -2 -2 -2 -1 -1 -1 -1 -2 -4 -5
5 4 4 4 4 4 4 3 3 2 1 0 0 -1 -1 -0 -1 -1 -1 -1 -1 -1 -0 0 -0 -1 -1 -1 -1 -1 -2 -2 -2 -2 -2 -1 -1 -1 -1 -2 -3 -4 -5
3 4 4 4 4 4 3 3 2 2 1 1 -0 -1 -0 -1 -1 0 -1 -1 -1 -0 0 0 -0 -1 -1 -1 -0 -2 -2 -2 -2 -2 -1 -1 -1 -2 -2 -3 -3 -4 -4
1 4 4 4 3 3 3 3 2 0 1 -0 -0 0 -1 -1 -0 -1 -1 -0 -0 0 0 0 -0 -2 -2 -1 -1 -1 -2 -2 -1 -1 -1 -1 -1 -1 -1 -2 -3 -3 -3
3 3 3 3 3 2 3 3 2 2 0 -1 -0 -0 -1 0 0 -0 -0 0 1 1 0 0 -1 -3 -1 -0 -1 -1 -1 -1 -1 -1 -1 -1 -1 -1 -1 -2 -2 -2 -2

GFSGL_700_temp_291.txt.gz
Temp
12 12 11 11 11 11 12 12 11 11 10 10 9 9 9 9 9 9 9 9 8 9 8 8 8 8 9 8 8 8 8 8 7 8 7 7 7 6 6 7 7 7 6
12 12 11 11 11 12 12 12 11 10 10 9 9 9 9 9 9 9 9 8 8 8 8 8 8 8 8 8 8 8 8 7 7 7 7 7 7 6 5 6 6 6 6
12 12 11 12 12 13 12 11 10 10 9 9 8 8 8 8 8 8 8 8 8 8 8 8 7 8 7 8 8 8 7 7 7 7 7 7 7 6 5 4 4 5 5
12 12 12 12 12 13 12 11 11 10 9 9 8 8 8 8 8 8 8 8 8 8 7 7 7 7 7 7 7 7 7 7 6 6 6 6 6 6 6 5 5 5 5
13 12 12 12 12 12 11 11 10 10 9 9 8 9 9 9 8 8 8 7 7 7 7 7 7 6 6 6 6 6 6 6 5 5 5 5 5 5 5 5 4 4 4
13 12 13 13 12 12 11 11 10 9 9 9 9 9 8 8 9 8 8 7 7 7 6 6 6 6 6 5 5 5 5 5 4 4 4 4 4 4 4 4 4 4 4
13 12 13 12 12 12 11 11 10 9 9 9 8 8 8 8 8 8 8 7 6 6 6 5 5 5 4 4 4 4 3 3 3 3 3 3 3 3 3 4 3 3 3
12 12 12 12 11 12 11 11 10 10 9 9 8 8 8 8 7 7 7 7 6 6 6 5 5 4 4 4 3 3 2 2 2 2 2 2 3 3 2 3 2 3 3
13 13 12 11 11 11 11 10 10 9 9 8 8 8 8 7 7 7 6 6 5 5 4 5 4 3 3 3 2 2 2 2 2 2 1 1 1 1 1 1 1 2 2
11 10 10 10 10 11 10 10 9 9 8 8 7 7 7 7 6 6 5 5 4 4 3 3 2 2 2 2 1 1 1 1 1 0 0 -0 -0 -0 -1 -0 -0 0 0
10 9 8 8 9 9 9 9 9 9 8 8 7 7 6 6 5 5 5 4 4 3 3 3 2 2 1 1 0 -0 -1 -1 -2 -2 -2 -2 -2 -2 -2 -1 -1 -1 -1
12 10 10 8 9 8 8 7 8 8 7 7 7 6 6 5 4 5 5 4 3 3 2 2 2 1 0 -1 -1 -2 -3 -2 -3 -3 -3 -4 -4 -3 -3 -3 -3 -3 -3
11 11 10 9 9 8 7 6 7 6 6 7 6 6 5 5 5 5 4 3 3 2 2 1 0 -0 -1 -2 -2 -2 -2 -2 -3 -3 -3 -3 -4 -4 -3 -2 -2 -2 -2
10 11 10 9 8 7 7 6 5 5 6 6 6 5 5 5 5 4 3 3 2 1 -0 -0 -0 -1 -1 -2 -2 -2 -2 -2 -3 -3 -2 -2 -3 -3 -3 -2 -2 -2 -1
9 10 10 9 8 7 7 5 5 6 6 6 5 5 5 5 4 3 3 2 1 -1 -1 -1 -2 -2 -2 -2 -2 -2 -2 -2 -2 -3 -2 -3 -3 -2 -2 -2 -2 -2 -2
10 10 10 9 8 8 6 5 5 6 5 4 5 5 5 5 3 2 2 1 -0 -0 -1 -1 -1 -2 -2 -2 -1 -1 -1 -1 -2 -2 -2 -2 -2 -2 -1 -2 -2 -2 -2
9 9 9 9 9 7 5 5 6 5 4 5 5 5 5 4 3 2 1 -0 -1 -1 -2 -2 -1 -2 -1 -1 -1 -0 -1 -1 -2 -1 -2 -2 -2 -2 -3 -2 -2 -2 -1
9 9 8 8 7 6 6 5 5 5 4 5 5 4 4 2 1 1 -0 -1 -1 -2 -2 -1 -1 -1 -0 0 0 -0 -1 -1 -2 -1 -2 -2 -2 -2 -2 -2 -2 -1 -1
8 8 8 8 7 6 5 5 5 5 4 4 4 4 3 1 1 1 -1 -1 -1 -1 -0 -1 -0 0 1 0 -0 -1 -1 -1 -1 -2 -2 -2 -1 -1 -1 -1 -1 -1 -1
8 8 8 8 7 6 5 5 5 5 5 5 4 4 2 1 1 0 -1 -1 -0 0 -0 0 1 1 1 0 -1 -2 -1 -1 -2 -2 -1 -1 -1 -1 -1 -1 -1 -1 -2
7 6 7 7 5 5 5 5 5 5 5 4 4 3 2 2 1 -0 -0 -0 0 0 1 1 1 1 0 -1 -2 -1 -1 -1 -2 -1 -1 -1 -1 -1 -1 -1 -2 -2 -3
6 7 6 5 5 5 5 4 4 5 5 4 3 2 2 1 -0 -1 -0 1 1 1 1 1 1 1 0 -1 -0 -1 -1 -1 -1 -1 -1 -1 -1 -1 -1 -2 -2 -2 -3
6 6 5 5 5 4 4 4 5 5 5 4 2 2 1 -0 -1 0 0 1 1 1 1 1 1 1 0 0 -0 -0 -1 -1 -1 -0 -0 -0 -1 -2 -2 -2 -2 -2 -2
6 5 5 4 4 4 4 5 5 5 4 3 2 1 -0 -1 0 0 1 1 1 1 1 1 1 1 1 0 -0 -0 -1 -1 -1 -1 -1 -0 -1 -2 -1 -1 -2 -2 -3
4 5 4 3 3 3 4 4 4 4 3 2 1 0 -1 -0 0 0 1 1 1 2 2 1 1 1 1 0 -0 -0 -1 -1 -1 -1 -1 -1 -2 -1 -1 -2 -2 -2 -3
5 4 0 2 3 3 4 4 3 3 2 2 1 -0 -1 -1 -0 0 1 1 2 2 2 1 2 1 1 0 -1 -1 -1 -1 -1 -1 -1 -1 -1 -1 -2 -2 -3 -4 -3